Wetterdaten: Samstag, 09.09.2017
Datum Zeit Temp. A. Feuchte A. Luftdruck Regen Wind Richtung Richtung Sonnenschein Helligkeit Solar
09.09.2017 00:01 15,0 C 87 % 996,7 hPa 0,0 l/m 17,0 km/h (3 Bft) S22.5 185 0 min 0 lux 0 W/m
09.09.2017 00:06 15,0 C 87 % 996,7 hPa 0,0 l/m 16,4 km/h (3 Bft) S22.5 185 0 min 0 lux 0 W/m
09.09.2017 00:10 15,0 C 87 % 996,7 hPa 0,0 l/m 18,6 km/h (3 Bft) S22.5 180 0 min 0 lux 0 W/m
09.09.2017 00:16 15,0 C 87 % 996,7 hPa 0,0 l/m 20,6 km/h (4 Bft) S22.5 185 0 min 0 lux 0 W/m
09.09.2017 00:21 15,0 C 87 % 996,7 hPa 0,1 l/m 19,6 km/h (3 Bft) S45 180 0 min 0 lux 0 W/m
09.09.2017 00:26 15,0 C 87 % 996,7 hPa 0,0 l/m 16,4 km/h (3 Bft) S22.5 185 0 min 0 lux 0 W/m
09.09.2017 00:31 14,9 C 87 % 996,7 hPa 0,0 l/m 19,0 km/h (3 Bft) S22.5 180 0 min 0 lux 0 W/m
09.09.2017 00:35 14,9 C 87 % 996,7 hPa 0,0 l/m 21,0 km/h (4 Bft) S22.5 185 0 min 0 lux 0 W/m
09.09.2017 00:41 14,9 C 87 % 996,7 hPa 0,1 l/m 24,9 km/h (4 Bft) S22.5 185 0 min 0 lux 0 W/m
09.09.2017 00:46 14,8 C 87 % 996,7 hPa 0,0 l/m 19,0 km/h (3 Bft) S22.5 185 0 min 0 lux 0 W/m
09.09.2017 00:51 14,8 C 87 % 996,7 hPa 0,0 l/m 13,6 km/h (3 Bft) S-SW22.5 195 0 min 0 lux 0 W/m
09.09.2017 00:56 14,8 C 87 % 996,7 hPa 0,0 l/m 22,6 km/h (4 Bft) S22.5 185 0 min 0 lux 0 W/m
09.09.2017 01:00 14,8 C 87 % 996,7 hPa 0,0 l/m 18,1 km/h (3 Bft) SW45 220 0 min 0 lux 0 W/m
09.09.2017 01:06 14,8 C 87 % 996,7 hPa 0,0 l/m 16,5 km/h (3 Bft) SW22.5 235 0 min 0 lux 0 W/m
09.09.2017 01:11 14,8 C 87 % 996,7 hPa 0,0 l/m 22,5 km/h (4 Bft) W-SW22.5 245 0 min 0 lux 0 W/m
09.09.2017 01:16 14,8 C 87 % 996,7 hPa 0,0 l/m 19,0 km/h (3 Bft) W-SW22.5 250 0 min 0 lux 0 W/m
09.09.2017 01:20 14,7 C 86 % 996,7 hPa 0,0 l/m 20,0 km/h (4 Bft) W-SW45 250 0 min 0 lux 0 W/m
09.09.2017 01:26 14,7 C 86 % 996,7 hPa 0,0 l/m 17,3 km/h (3 Bft) W-SW45 250 0 min 0 lux 0 W/m
09.09.2017 01:31 14,6 C 86 % 995,7 hPa 0,0 l/m 25,5 km/h (4 Bft) W-SW45 250 0 min 0 lux 0 W/m
09.09.2017 01:36 14,4 C 85 % 995,7 hPa 0,0 l/m 19,4 km/h (3 Bft) W-SW67.5 250 0 min 0 lux 0 W/m
09.09.2017 01:41 14,4 C 84 % 995,7 hPa 0,0 l/m 16,1 km/h (3 Bft) W-SW22.5 250 0 min 0 lux 0 W/m
09.09.2017 01:45 14,4 C 84 % 995,7 hPa 0,0 l/m 14,2 km/h (3 Bft) W-SW22.5 245 0 min 0 lux 0 W/m
09.09.2017 01:50 14,3 C 84 % 995,7 hPa 0,0 l/m 10,5 km/h (2 Bft) SW22.5 230 0 min 0 lux 0 W/m
09.09.2017 01:56 14,4 C 84 % 995,7 hPa 0,0 l/m 5,4 km/h (2 Bft) SW 230 0 min 0 lux 0 W/m
09.09.2017 02:01 14,3 C 84 % 995,7 hPa 0,1 l/m 0,6 km/h (0 Bft) SW 230 0 min 0 lux 0 W/m
09.09.2017 02:05 14,4 C 85 % 995,7 hPa 0,0 l/m 7,1 km/h (2 Bft) SW22.5 215 0 min 0 lux 0 W/m
09.09.2017 02:11 14,5 C 85 % 995,7 hPa 0,1 l/m 6,5 km/h (2 Bft) S-SO22.5 165 0 min 0 lux 0 W/m
09.09.2017 02:16 14,6 C 85 % 995,7 hPa 0,0 l/m 7,1 km/h (2 Bft) S-SO 165 0 min 0 lux 0 W/m
09.09.2017 02:21 14,6 C 85 % 995,7 hPa 0,0 l/m 6,1 km/h (2 Bft) S 170 0 min 0 lux 0 W/m
09.09.2017 02:26 14,7 C 86 % 995,7 hPa 0,1 l/m 9,5 km/h (2 Bft) S-SO22.5 160 0 min 0 lux 0 W/m
09.09.2017 02:30 14,7 C 86 % 995,7 hPa 0,1 l/m 11,6 km/h (2 Bft) S-SO22.5 155 0 min 0 lux 0 W/m
09.09.2017 02:36 14,6 C 86 % 995,7 hPa 0,1 l/m 9,6 km/h (2 Bft) S22.5 175 0 min 0 lux 0 W/m
09.09.2017 02:41 14,6 C 86 % 995,7 hPa 0,1 l/m 11,3 km/h (2 Bft) S-SO22.5 165 0 min 0 lux 0 W/m
09.09.2017 02:46 14,6 C 86 % 995,7 hPa 0,2 l/m 11,0 km/h (2 Bft) S22.5 170 0 min 0 lux 0 W/m
09.09.2017 02:51 14,6 C 86 % 995,7 hPa 0,0 l/m 15,1 km/h (3 Bft) S22.5 175 0 min 0 lux 0 W/m
09.09.2017 02:55 14,6 C 86 % 995,7 hPa 0,4 l/m 17,4 km/h (3 Bft) S22.5 175 0 min 0 lux 0 W/m
09.09.2017 03:00 14,5 C 86 % 995,7 hPa 0,1 l/m 18,5 km/h (3 Bft) S45 185 0 min 0 lux 0 W/m
09.09.2017 03:06 14,5 C 86 % 994,7 hPa 0,5 l/m 16,6 km/h (3 Bft) S-SW45 200 0 min 0 lux 0 W/m
09.09.2017 03:11 14,3 C 86 % 994,7 hPa 0,1 l/m 31,8 km/h (5 Bft) SW45 215 0 min 0 lux 0 W/m
09.09.2017 03:15 14,0 C 86 % 995,7 hPa 0,2 l/m 25,5 km/h (4 Bft) SW22.5 225 0 min 0 lux 0 W/m
09.09.2017 03:21 13,9 C 86 % 994,7 hPa 0,4 l/m 25,5 km/h (4 Bft) SW67.5 220 0 min 0 lux 0 W/m
09.09.2017 03:26 13,8 C 87 % 994,7 hPa 0,2 l/m 25,6 km/h (4 Bft) SW22.5 235 0 min 0 lux 0 W/m
09.09.2017 03:31 13,6 C 87 % 994,7 hPa 0,1 l/m 24,8 km/h (4 Bft) SW22.5 225 0 min 0 lux 0 W/m
09.09.2017 03:36 13,6 C 87 % 994,7 hPa 0,1 l/m 21,2 km/h (4 Bft) SW45 230 0 min 0 lux 0 W/m
09.09.2017 03:40 13,3 C 86 % 994,7 hPa 0,1 l/m 20,4 km/h (4 Bft) SW22.5 225 0 min 0 lux 0 W/m
09.09.2017 03:46 13,2 C 86 % 994,7 hPa 0,1 l/m 15,1 km/h (3 Bft) SW22.5 230 0 min 0 lux 0 W/m
09.09.2017 03:51 13,2 C 87 % 994,7 hPa 0,0 l/m 16,6 km/h (3 Bft) SW22.5 225 0 min 0 lux 0 W/m
09.09.2017 03:56 13,2 C 87 % 994,7 hPa 0,2 l/m 16,1 km/h (3 Bft) SW22.5 230 0 min 0 lux 0 W/m
09.09.2017 04:01 13,2 C 87 % 994,7 hPa 0,1 l/m 10,5 km/h (2 Bft) SW22.5 225 0 min 0 lux 0 W/m
09.09.2017 04:06 13,2 C 87 % 994,7 hPa 0,1 l/m 10,8 km/h (2 Bft) SW22.5 215 0 min 0 lux 0 W/m
09.09.2017 04:11 13,2 C 87 % 994,7 hPa 0,0 l/m 10,3 km/h (2 Bft) SW22.5 220 0 min 0 lux 0 W/m
09.09.2017 04:16 13,2 C 87 % 994,7 hPa 0,1 l/m 8,5 km/h (2 Bft) SW22.5 215 0 min 0 lux 0 W/m
09.09.2017 04:21 13,2 C 87 % 994,7 hPa 0,0 l/m 10,3 km/h (2 Bft) S22.5 190 0 min 0 lux 0 W/m
09.09.2017 04:25 13,2 C 87 % 994,7 hPa 0,1 l/m 10,3 km/h (2 Bft) S22.5 190 0 min 0 lux 0 W/m
09.09.2017 04:31 13,2 C 87 % 994,7 hPa 0,1 l/m 10,3 km/h (2 Bft) S-SW22.5 200 0 min 0 lux 0 W/m
09.09.2017 04:36 13,2 C 87 % 994,7 hPa 0,0 l/m 10,1 km/h (2 Bft) S22.5 180 0 min 0 lux 0 W/m
09.09.2017 04:41 13,2 C 87 % 993,7 hPa 0,1 l/m 10,7 km/h (2 Bft) S22.5 175 0 min 0 lux 0 W/m
09.09.2017 04:46 13,2 C 87 % 993,7 hPa 0,1 l/m 11,9 km/h (2 Bft) S22.5 185 0 min 0 lux 0 W/m
09.09.2017 04:50 13,2 C 87 % 994,7 hPa 0,1 l/m 14,1 km/h (3 Bft) S22.5 185 0 min 0 lux 0 W/m
09.09.2017 04:56 13,1 C 87 % 993,7 hPa 0,8 l/m 10,8 km/h (2 Bft) S-SW45 200 0 min 0 lux 0 W/m
09.09.2017 05:01 13,1 C 87 % 993,7 hPa 0,4 l/m 9,9 km/h (2 Bft) S22.5 175 0 min 0 lux 0 W/m
09.09.2017 05:05 13,1 C 87 % 993,7 hPa 0,2 l/m 5,4 km/h (2 Bft) S-SO22.5 160 0 min 0 lux 0 W/m
09.09.2017 05:10 13,1 C 87 % 993,7 hPa 0,5 l/m 8,8 km/h (2 Bft) S22.5 175 0 min 0 lux 0 W/m
09.09.2017 05:16 13,1 C 87 % 993,7 hPa 0,5 l/m 8,1 km/h (2 Bft) S-SW45 200 0 min 0 lux 0 W/m
09.09.2017 05:21 13,0 C 87 % 993,7 hPa 0,4 l/m 6,3 km/h (2 Bft) S22.5 170 0 min 0 lux 0 W/m
09.09.2017 05:26 13,1 C 87 % 993,7 hPa 0,1 l/m 10,3 km/h (2 Bft) S45 180 0 min 0 lux 0 W/m
09.09.2017 05:30 13,1 C 87 % 993,7 hPa 0,1 l/m 11,0 km/h (2 Bft) S22.5 180 0 min 0 lux 0 W/m
09.09.2017 05:35 13,2 C 87 % 993,7 hPa 0,0 l/m 10,0 km/h (2 Bft) S22.5 185 0 min 0 lux 0 W/m
09.09.2017 05:41 13,2 C 87 % 993,7 hPa 0,1 l/m 11,4 km/h (2 Bft) S-SW22.5 210 0 min 0 lux 0 W/m
09.09.2017 05:46 13,4 C 87 % 993,7 hPa 0,0 l/m 9,0 km/h (2 Bft) S22.5 185 0 min 0 lux 0 W/m
09.09.2017 05:51 13,5 C 87 % 993,7 hPa 0,2 l/m 12,8 km/h (3 Bft) W-SW22.5 240 0 min 0 lux 0 W/m
09.09.2017 05:56 13,4 C 87 % 993,7 hPa 0,2 l/m 9,6 km/h (2 Bft) S-SW22.5 210 0 min 0 lux 0 W/m
09.09.2017 06:00 13,4 C 87 % 993,7 hPa 0,0 l/m 16,1 km/h (3 Bft) SW45 215 0 min 0 lux 0 W/m
09.09.2017 06:06 13,5 C 87 % 993,7 hPa 0,1 l/m 14,9 km/h (3 Bft) S-SW22.5 195 0 min 0 lux 0 W/m
09.09.2017 06:11 13,5 C 87 % 993,7 hPa 0,1 l/m 9,8 km/h (2 Bft) S22.5 185 0 min 0 lux 0 W/m
09.09.2017 06:15 13,5 C 87 % 993,7 hPa 0,1 l/m 8,9 km/h (2 Bft) S22.5 180 0 min 0 lux 0 W/m
09.09.2017 06:21 13,5 C 87 % 993,7 hPa 0,2 l/m 9,8 km/h (2 Bft) S-SW22.5 195 0 min 0 lux 0 W/m
09.09.2017 06:26 13,5 C 87 % 993,7 hPa 0,1 l/m 12,9 km/h (3 Bft) S-SW67.5 200 0 min 0 lux 0 W/m
09.09.2017 06:31 13,5 C 87 % 992,7 hPa 0,1 l/m 13,1 km/h (3 Bft) S-SW45 195 0 min 0 lux 0 W/m
09.09.2017 06:36 13,5 C 87 % 992,7 hPa 0,2 l/m 13,1 km/h (3 Bft) SW45 215 0 min 0 lux 0 W/m
09.09.2017 06:40 13,5 C 88 % 992,7 hPa 0,1 l/m 13,1 km/h (3 Bft) SW45 215 0 min 0 lux 0 W/m
09.09.2017 06:45 13,6 C 88 % 992,7 hPa 0,0 l/m 13,1 km/h (3 Bft) S-SW45 210 0 min 0 lux 0 W/m
09.09.2017 06:51 13,6 C 88 % 992,7 hPa 0,0 l/m 14,5 km/h (3 Bft) SW45 215 0 min 0 lux 0 W/m
09.09.2017 06:56 13,5 C 88 % 992,7 hPa 0,1 l/m 15,5 km/h (3 Bft) SW45 220 0 min 0 lux 0 W/m
09.09.2017 07:01 13,5 C 88 % 992,7 hPa 0,0 l/m 18,7 km/h (3 Bft) SW45 230 0 min 0 lux 0 W/m
09.09.2017 07:06 13,5 C 88 % 992,7 hPa 0,1 l/m 17,1 km/h (3 Bft) SW22.5 230 0 min 0 lux 0 W/m
09.09.2017 07:11 13,5 C 88 % 992,7 hPa 0,1 l/m 22,3 km/h (4 Bft) SW22.5 220 0 min 0 lux 0 W/m
09.09.2017 07:16 13,5 C 88 % 992,7 hPa 0,1 l/m 17,8 km/h (3 Bft) SW22.5 220 0 min 0 lux 0 W/m
09.09.2017 07:21 13,5 C 88 % 992,7 hPa 0,0 l/m 18,1 km/h (3 Bft) SW45 225 0 min 0 lux 0 W/m
09.09.2017 07:25 13,5 C 88 % 992,7 hPa 0,2 l/m 17,6 km/h (3 Bft) S-SW45 210 0 min 0 lux 0 W/m
09.09.2017 07:31 13,4 C 88 % 992,7 hPa 0,0 l/m 21,6 km/h (4 Bft) SW22.5 230 0 min 0 lux 0 W/m
09.09.2017 07:36 13,5 C 88 % 993,7 hPa 0,1 l/m 20,5 km/h (4 Bft) SW45 225 0 min 0 lux 0 W/m
09.09.2017 07:41 13,4 C 88 % 993,7 hPa 0,1 l/m 16,0 km/h (3 Bft) SW22.5 220 0 min 0 lux 0 W/m
09.09.2017 07:46 13,4 C 88 % 993,7 hPa 0,1 l/m 20,8 km/h (4 Bft) SW45 225 0 min 0 lux 0 W/m
09.09.2017 07:50 13,4 C 88 % 993,7 hPa 0,0 l/m 22,5 km/h (4 Bft) SW22.5 225 0 min 0 lux 0 W/m
09.09.2017 07:56 13,4 C 88 % 993,7 hPa 0,1 l/m 22,1 km/h (4 Bft) SW45 220 0 min 0 lux 0 W/m
09.09.2017 08:01 13,4 C 88 % 993,7 hPa 0,1 l/m 12,6 km/h (3 Bft) SW22.5 215 0 min 0 lux 0 W/m
09.09.2017 08:05 13,3 C 88 % 992,7 hPa 0,1 l/m 11,7 km/h (2 Bft) S-SW22.5 200 0 min 0 lux 0 W/m
09.09.2017 08:10 13,2 C 88 % 992,7 hPa 0,0 l/m 13,8 km/h (3 Bft) S-SW22.5 205 0 min 0 lux 0 W/m
09.09.2017 08:16 13,2 C 88 % 992,7 hPa 0,1 l/m 14,4 km/h (3 Bft) S22.5 185 0 min 0 lux 0 W/m
09.09.2017 08:21 13,2 C 88 % 992,7 hPa 0,0 l/m 14,2 km/h (3 Bft) S-SW22.5 210 0 min 0 lux 0 W/m
09.09.2017 08:26 13,2 C 88 % 992,7 hPa 0,0 l/m 11,0 km/h (2 Bft) S22.5 190 0 min 0 lux 0 W/m
09.09.2017 08:31 13,2 C 88 % 992,7 hPa 0,0 l/m 12,5 km/h (2 Bft) S22.5 180 0 min 0 lux 0 W/m
09.09.2017 08:35 13,2 C 88 % 992,7 hPa 0,0 l/m 14,1 km/h (3 Bft) S-SW22.5 205 0 min 0 lux 0 W/m
09.09.2017 08:41 13,2 C 88 % 992,7 hPa 0,0 l/m 13,0 km/h (3 Bft) S22.5 190 0 min 0 lux 0 W/m
09.09.2017 08:46 13,2 C 88 % 992,7 hPa 0,0 l/m 16,0 km/h (3 Bft) S22.5 190 0 min 0 lux 0 W/m
09.09.2017 08:51 13,2 C 88 % 992,7 hPa 0,0 l/m 15,3 km/h (3 Bft) S22.5 185 0 min 0 lux 0 W/m
09.09.2017 08:56 13,2 C 88 % 992,7 hPa 0,0 l/m 12,3 km/h (2 Bft) S22.5 185 0 min 0 lux 0 W/m
09.09.2017 09:00 13,2 C 88 % 992,7 hPa 0,1 l/m 14,5 km/h (3 Bft) S22.5 190 0 min 0 lux 0 W/m
09.09.2017 09:06 13,2 C 88 % 992,7 hPa 0,0 l/m 16,2 km/h (3 Bft) S22.5 185 0 min 0 lux 0 W/m
09.09.2017 09:11 13,3 C 88 % 992,7 hPa 0,0 l/m 11,5 km/h (2 Bft) S-SW45 195 0 min 0 lux 0 W/m
09.09.2017 09:15 13,3 C 88 % 992,7 hPa 0,0 l/m 17,1 km/h (3 Bft) S22.5 180 0 min 0 lux 0 W/m
09.09.2017 09:21 13,4 C 88 % 992,7 hPa 0,0 l/m 13,6 km/h (3 Bft) S22.5 185 0 min 0 lux 0 W/m
09.09.2017 09:26 13,4 C 88 % 992,7 hPa 0,0 l/m 12,6 km/h (3 Bft) S22.5 190 0 min 0 lux 0 W/m
09.09.2017 09:31 13,3 C 88 % 993,7 hPa 0,1 l/m 21,8 km/h (4 Bft) S-SW45 200 0 min 0 lux 0 W/m
09.09.2017 09:36 13,3 C 88 % 993,7 hPa 0,1 l/m 19,1 km/h (3 Bft) S-SW45 200 0 min 0 lux 0 W/m
09.09.2017 09:40 13,3 C 88 % 993,7 hPa 0,0 l/m 20,6 km/h (4 Bft) S22.5 190 0 min 0 lux 0 W/m
09.09.2017 09:46 13,3 C 88 % 993,7 hPa 0,1 l/m 17,8 km/h (3 Bft) S-SW67.5 195 0 min 0 lux 0 W/m
09.09.2017 09:51 13,3 C 88 % 993,7 hPa 0,0 l/m 20,2 km/h (4 Bft) S-SW45 205 0 min 0 lux 0 W/m
09.09.2017 09:56 13,4 C 88 % 993,7 hPa 0,1 l/m 19,0 km/h (3 Bft) S-SW45 195 0 min 6,86 klux 47 W/m
09.09.2017 10:01 13,4 C 88 % 993,7 hPa 0,0 l/m 23,8 km/h (4 Bft) S-SW45 195 0 min 14,3 klux 98 W/m
09.09.2017 10:06 13,6 C 88 % 993,7 hPa 0,0 l/m 22,3 km/h (4 Bft) S-SW22.5 205 0 min 13,8 klux 94 W/m
09.09.2017 10:11 13,6 C 88 % 993,7 hPa 0,0 l/m 19,2 km/h (3 Bft) SW45 215 0 min 14,2 klux 97 W/m
09.09.2017 10:16 13,9 C 88 % 993,7 hPa 0,0 l/m 22,6 km/h (4 Bft) SW45 225 0 min 11,4 klux 78 W/m
09.09.2017 10:20 14,0 C 88 % 993,7 hPa 0,0 l/m 32,7 km/h (5 Bft) SW22.5 225 0 min 11,4 klux 78 W/m
09.09.2017 10:26 14,1 C 88 % 993,7 hPa 0,0 l/m 33,1 km/h (5 Bft) SW22.5 220 0 min 13,7 klux 94 W/m
09.09.2017 10:31 14,2 C 88 % 993,7 hPa 0,0 l/m 27,3 km/h (5 Bft) SW45 225 0 min 13,7 klux 94 W/m
09.09.2017 10:36 14,2 C 87 % 993,7 hPa 0,0 l/m 28,8 km/h (5 Bft) SW45 225 0 min 12,9 klux 88 W/m
09.09.2017 10:41 14,2 C 87 % 993,7 hPa 0,0 l/m 23,1 km/h (4 Bft) SW45 235 0 min 12,9 klux 88 W/m
09.09.2017 10:45 14,2 C 87 % 994,7 hPa 0,0 l/m 30,3 km/h (5 Bft) SW45 230 0 min 12,9 klux 88 W/m
09.09.2017 10:51 14,3 C 87 % 994,7 hPa 0,0 l/m 20,2 km/h (4 Bft) W-SW67.5 240 0 min 12,9 klux 88 W/m
09.09.2017 10:56 14,4 C 87 % 994,7 hPa 0,0 l/m 25,5 km/h (4 Bft) SW22.5 235 0 min 12,9 klux 88 W/m
09.09.2017 11:01 14,4 C 86 % 994,7 hPa 0,0 l/m 28,8 km/h (5 Bft) W45 260 0 min 22,0 klux 150 W/m
09.09.2017 11:05 14,4 C 85 % 994,7 hPa 0,0 l/m 29,5 km/h (5 Bft) SW67.5 230 0 min 22,0 klux 150 W/m
09.09.2017 11:11 14,5 C 86 % 994,7 hPa 0,0 l/m 25,6 km/h (4 Bft) W-SW45 245 0 min 22,0 klux 150 W/m
09.09.2017 11:16 14,4 C 84 % 994,7 hPa 0,0 l/m 26,3 km/h (4 Bft) W-SW22.5 250 0 min 22,0 klux 150 W/m
09.09.2017 11:21 14,6 C 84 % 994,7 hPa 0,0 l/m 28,2 km/h (5 Bft) W22.5 260 0 min 12,4 klux 85 W/m
09.09.2017 11:25 14,7 C 84 % 994,7 hPa 0,0 l/m 21,2 km/h (4 Bft) SW45 235 0 min 12,4 klux 85 W/m
09.09.2017 11:31 14,8 C 84 % 994,7 hPa 0,0 l/m 20,5 km/h (4 Bft) W-SW45 240 0 min 12,4 klux 85 W/m
09.09.2017 11:36 15,0 C 83 % 994,6 hPa 0,0 l/m 23,5 km/h (4 Bft) SW22.5 230 0 min 35,7 klux 244 W/m
09.09.2017 11:41 15,2 C 83 % 994,6 hPa 0,0 l/m 20,1 km/h (4 Bft) SW45 230 0 min 35,7 klux 244 W/m
09.09.2017 11:46 15,4 C 82 % 994,6 hPa 0,0 l/m 31,8 km/h (5 Bft) SW67.5 230 0 min 32,0 klux 219 W/m
09.09.2017 11:50 15,6 C 82 % 994,6 hPa 0,0 l/m 28,5 km/h (5 Bft) W-SW45 240 0 min 24,6 klux 168 W/m
09.09.2017 11:56 15,8 C 82 % 994,6 hPa 0,0 l/m 22,6 km/h (4 Bft) W-SW45 250 0 min 25,7 klux 176 W/m
09.09.2017 12:01 15,8 C 80 % 994,6 hPa 0,0 l/m 22,3 km/h (4 Bft) W-SW45 245 5 min 71,8 klux 491 W/m
09.09.2017 12:06 15,9 C 80 % 994,6 hPa 0,0 l/m 20,1 km/h (4 Bft) SW45 235 5 min 61,6 klux 421 W/m
09.09.2017 12:11 16,0 C 79 % 994,6 hPa 0,0 l/m 18,6 km/h (3 Bft) W-SW45 245 0 min 17,8 klux 122 W/m
09.09.2017 12:15 16,1 C 80 % 994,6 hPa 0,0 l/m 17,3 km/h (3 Bft) W-SW45 245 0 min 27,5 klux 188 W/m
09.09.2017 12:21 16,1 C 79 % 994,6 hPa 0,0 l/m 22,1 km/h (4 Bft) W-SW45 240 0 min 29,2 klux 200 W/m
09.09.2017 12:26 16,3 C 77 % 994,6 hPa 0,0 l/m 29,5 km/h (5 Bft) W-SW22.5 250 0 min 23,7 klux 162 W/m
09.09.2017 12:31 16,3 C 76 % 994,6 hPa 0,0 l/m 25,6 km/h (4 Bft) W-SW67.5 240 0 min 30,1 klux 206 W/m
09.09.2017 12:36 16,4 C 76 % 994,6 hPa 0,0 l/m 30,8 km/h (5 Bft) SW45 230 0 min 30,0 klux 205 W/m
09.09.2017 12:40 16,4 C 76 % 994,6 hPa 0,0 l/m 26,5 km/h (4 Bft) SW45 225 0 min 33,7 klux 231 W/m
09.09.2017 12:46 16,5 C 75 % 994,6 hPa 0,0 l/m 30,7 km/h (5 Bft) W-SW45 240 0 min 34,2 klux 234 W/m
09.09.2017 12:51 16,3 C 74 % 995,6 hPa 0,0 l/m 35,0 km/h (5 Bft) SW67.5 215 0 min 19,8 klux 135 W/m
09.09.2017 12:56 16,2 C 75 % 995,6 hPa 0,0 l/m 35,0 km/h (5 Bft) SW67.5 215 0 min 19,9 klux 136 W/m
09.09.2017 13:01 16,3 C 77 % 995,6 hPa 0,0 l/m 32,6 km/h (5 Bft) W-SW67.5 240 0 min 20,0 klux 137 W/m
09.09.2017 13:06 16,2 C 77 % 995,6 hPa 0,0 l/m 25,4 km/h (4 Bft) SW45 225 0 min 26,4 klux 181 W/m
09.09.2017 13:11 16,2 C 79 % 995,6 hPa 0,0 l/m 31,5 km/h (5 Bft) SW45 235 0 min 38,4 klux 263 W/m
09.09.2017 13:16 16,7 C 79 % 995,6 hPa 0,0 l/m 22,6 km/h (4 Bft) SW22.5 225 0 min 30,0 klux 205 W/m
09.09.2017 13:20 16,4 C 78 % 995,6 hPa 0,0 l/m 25,5 km/h (4 Bft) SW45 225 0 min 23,8 klux 163 W/m
09.09.2017 13:26 16,4 C 79 % 995,6 hPa 0,0 l/m 24,8 km/h (4 Bft) SW45 235 0 min 21,1 klux 144 W/m
09.09.2017 13:31 16,4 C 78 % 995,6 hPa 0,0 l/m 25,6 km/h (4 Bft) SW45 230 0 min 38,8 klux 265 W/m
09.09.2017 13:36 16,8 C 76 % 995,6 hPa 0,0 l/m 30,4 km/h (5 Bft) SW45 225 5 min 55,8 klux 382 W/m
09.09.2017 13:41 16,6 C 75 % 995,6 hPa 0,0 l/m 26,5 km/h (4 Bft) SW45 230 0 min 31,5 klux 215 W/m
09.09.2017 13:45 16,8 C 76 % 995,6 hPa 0,0 l/m 26,5 km/h (4 Bft) SW45 230 4 min 85,2 klux 583 W/m
09.09.2017 13:51 17,0 C 75 % 995,6 hPa 0,0 l/m 24,7 km/h (4 Bft) SW22.5 235 0 min 27,7 klux 189 W/m
09.09.2017 13:56 16,9 C 75 % 995,6 hPa 0,0 l/m 20,7 km/h (4 Bft) SW67.5 225 0 min 32,5 klux 222 W/m
09.09.2017 14:01 16,8 C 74 % 995,6 hPa 0,0 l/m 26,1 km/h (4 Bft) SW67.5 230 0 min 22,2 klux 152 W/m
09.09.2017 14:06 16,7 C 75 % 995,6 hPa 0,0 l/m 30,1 km/h (5 Bft) SW45 230 0 min 34,6 klux 237 W/m
09.09.2017 14:11 16,8 C 77 % 995,6 hPa 0,0 l/m 27,2 km/h (5 Bft) SW45 225 0 min 34,6 klux 237 W/m
09.09.2017 14:16 16,7 C 77 % 995,6 hPa 0,0 l/m 24,8 km/h (4 Bft) SW45 225 0 min 34,2 klux 234 W/m
09.09.2017 14:21 16,7 C 76 % 995,6 hPa 0,0 l/m 27,5 km/h (5 Bft) SW45 225 0 min 34,2 klux 234 W/m
09.09.2017 14:25 17,0 C 76 % 995,6 hPa 0,0 l/m 23,1 km/h (4 Bft) SW67.5 220 0 min 36,6 klux 250 W/m
09.09.2017 14:31 17,1 C 75 % 995,6 hPa 0,0 l/m 25,8 km/h (4 Bft) SW22.5 225 6 min 74,0 klux 506 W/m
09.09.2017 14:36 17,6 C 74 % 995,6 hPa 0,1 l/m 26,4 km/h (4 Bft) SW45 220 5 min 81,9 klux 560 W/m
09.09.2017 14:41 18,0 C 74 % 995,6 hPa 0,0 l/m 25,4 km/h (4 Bft) SW22.5 235 5 min 76,0 klux 520 W/m
09.09.2017 14:46 17,8 C 74 % 995,6 hPa 0,0 l/m 28,0 km/h (5 Bft) SW45 220 0 min 31,7 klux 217 W/m
09.09.2017 14:50 17,6 C 72 % 995,6 hPa 0,0 l/m 20,6 km/h (4 Bft) SW45 225 0 min 31,2 klux 213 W/m
09.09.2017 14:56 17,3 C 72 % 995,6 hPa 0,0 l/m 32,4 km/h (5 Bft) SW67.5 225 0 min 14,7 klux 101 W/m
09.09.2017 15:01 17,0 C 74 % 995,6 hPa 1,2 l/m 36,7 km/h (5 Bft) W-SW45 250 0 min 14,7 klux 101 W/m
09.09.2017 15:05 15,4 C 79 % 995,6 hPa 0,6 l/m 32,5 km/h (5 Bft) W-SW22.5 250 0 min 7,05 klux 48 W/m
09.09.2017 15:11 15,0 C 82 % 995,7 hPa 0,4 l/m 21,9 km/h (4 Bft) W22.5 265 0 min 7,05 klux 48 W/m
09.09.2017 15:16 14,8 C 83 % 995,7 hPa 0,4 l/m 21,8 km/h (4 Bft) W45 270 0 min 8,10 klux 55 W/m
09.09.2017 15:21 14,7 C 84 % 995,7 hPa 0,5 l/m 16,1 km/h (3 Bft) W22.5 270 0 min 6,36 klux 44 W/m
09.09.2017 15:26 14,4 C 83 % 995,7 hPa 0,1 l/m 19,8 km/h (3 Bft) W22.5 270 0 min 6,18 klux 42 W/m
09.09.2017 15:30 14,0 C 81 % 996,7 hPa 0,0 l/m 16,0 km/h (3 Bft) W-NW22.5 290 0 min 6,64 klux 45 W/m
09.09.2017 15:36 13,9 C 80 % 996,7 hPa 0,0 l/m 14,8 km/h (3 Bft) W22.5 280 0 min 6,60 klux 45 W/m
09.09.2017 15:41 14,0 C 81 % 996,7 hPa 0,0 l/m 15,5 km/h (3 Bft) W-SW22.5 255 0 min 8,17 klux 56 W/m
09.09.2017 15:46 14,4 C 82 % 996,7 hPa 0,2 l/m 8,3 km/h (2 Bft) W-SW22.5 240 5 min 72,0 klux 492 W/m
09.09.2017 15:51 14,5 C 81 % 996,7 hPa 0,0 l/m 11,8 km/h (2 Bft) W-SW22.5 240 0 min 38,6 klux 264 W/m
09.09.2017 15:55 14,7 C 81 % 996,7 hPa 0,0 l/m 9,3 km/h (2 Bft) W-SW22.5 245 0 min 28,4 klux 194 W/m
09.09.2017 16:01 14,7 C 79 % 996,7 hPa 0,0 l/m 9,8 km/h (2 Bft) W-SW22.5 245 0 min 28,4 klux 194 W/m
09.09.2017 16:06 15,0 C 80 % 996,7 hPa 0,0 l/m 9,0 km/h (2 Bft) W 280 5 min 55,7 klux 381 W/m
09.09.2017 16:10 15,1 C 78 % 996,7 hPa 0,0 l/m 10,5 km/h (2 Bft) W45 260 4 min 58,3 klux 399 W/m
09.09.2017 16:16 15,5 C 77 % 996,7 hPa 0,0 l/m 8,5 km/h (2 Bft) W-NW22.5 285 6 min 53,1 klux 363 W/m
09.09.2017 16:21 15,7 C 76 % 996,6 hPa 0,0 l/m 8,2 km/h (2 Bft) W-SW22.5 255 5 min 52,8 klux 361 W/m
09.09.2017 16:26 15,7 C 76 % 996,6 hPa 0,0 l/m 8,6 km/h (2 Bft) W45 265 5 min 57,2 klux 391 W/m
09.09.2017 16:31 16,3 C 75 % 996,6 hPa 0,0 l/m 10,4 km/h (2 Bft) W-SW22.5 240 5 min 52,3 klux 358 W/m
09.09.2017 16:35 16,6 C 75 % 996,6 hPa 0,0 l/m 11,8 km/h (2 Bft) NW22.5 315 4 min 52,3 klux 358 W/m
09.09.2017 16:41 17,1 C 76 % 996,6 hPa 0,0 l/m 6,1 km/h (2 Bft) SW22.5 220 6 min 49,8 klux 341 W/m
09.09.2017 16:46 17,2 C 76 % 996,6 hPa 0,0 l/m 8,1 km/h (2 Bft) S22.5 185 5 min 45,5 klux 311 W/m
09.09.2017 16:51 17,4 C 75 % 996,6 hPa 0,0 l/m 9,4 km/h (2 Bft) SW45 235 5 min 42,6 klux 291 W/m
09.09.2017 16:56 17,2 C 73 % 996,6 hPa 0,0 l/m 9,2 km/h (2 Bft) W22.5 260 5 min 42,8 klux 293 W/m
09.09.2017 17:00 16,9 C 73 % 996,6 hPa 0,0 l/m 9,9 km/h (2 Bft) W22.5 260 0 min 9,5 klux 65 W/m
09.09.2017 17:06 16,6 C 74 % 996,6 hPa 0,0 l/m 5,9 km/h (2 Bft) W22.5 265 0 min 6,90 klux 47 W/m
09.09.2017 17:11 16,3 C 74 % 996,6 hPa 0,0 l/m 0,4 km/h (0 Bft) W 275 0 min 7,65 klux 52 W/m
09.09.2017 17:15 16,3 C 75 % 996,6 hPa 0,0 l/m 7,0 km/h (2 Bft) W 270 0 min 7,19 klux 49 W/m
09.09.2017 17:21 16,3 C 75 % 996,6 hPa 0,0 l/m 7,2 km/h (2 Bft) W 270 0 min 3,60 klux 25 W/m
09.09.2017 17:26 16,1 C 75 % 996,6 hPa 0,0 l/m 11,7 km/h (2 Bft) NW22.5 320 0 min 1,32 klux 9 W/m
09.09.2017 17:31 16,1 C 76 % 996,6 hPa 0,0 l/m 18,5 km/h (3 Bft) NW22.5 315 0 min 548 lux 4 W/m
09.09.2017 17:36 14,8 C 78 % 996,7 hPa 3,6 l/m 38,7 km/h (6 Bft) W22.5 280 0 min 778 lux 5 W/m
09.09.2017 17:40 12,6 C 79 % 997,7 hPa 4,2 l/m 38,4 km/h (6 Bft) W-SW22.5 255 0 min 1,50 klux 10 W/m
09.09.2017 17:46 12,3 C 81 % 997,7 hPa 2,2 l/m 6,6 km/h (2 Bft) W-NW22.5 290 0 min 2,44 klux 17 W/m
09.09.2017 17:51 12,3 C 82 % 997,7 hPa 0,8 l/m 6,6 km/h (2 Bft) W-NW22.5 295 0 min 3,08 klux 21 W/m
09.09.2017 17:56 12,3 C 83 % 997,7 hPa 0,7 l/m 6,7 km/h (2 Bft) W 270 0 min 3,39 klux 23 W/m
09.09.2017 18:01 12,3 C 82 % 997,7 hPa 0,0 l/m 0,0 km/h (0 Bft) W 270 0 min 1,98 klux 14 W/m
09.09.2017 18:06 12,3 C 82 % 997,7 hPa 0,0 l/m 3,9 km/h (1 Bft) W 270 0 min 1,10 klux 8 W/m
09.09.2017 18:11 12,4 C 83 % 997,7 hPa 0,0 l/m 4,5 km/h (1 Bft) W 270 0 min 1,10 klux 8 W/m
09.09.2017 18:16 12,6 C 84 % 997,7 hPa 0,1 l/m 7,3 km/h (2 Bft) W-SW22.5 255 0 min 1,45 klux 10 W/m
09.09.2017 18:20 12,5 C 84 % 997,7 hPa 0,0 l/m 6,4 km/h (2 Bft) W-SW 250 0 min 1,60 klux 11 W/m
09.09.2017 18:26 12,6 C 84 % 997,7 hPa 0,1 l/m 4,0 km/h (1 Bft) W-SW22.5 240 0 min 1,83 klux 13 W/m
09.09.2017 18:31 12,5 C 84 % 997,7 hPa 0,0 l/m 4,6 km/h (1 Bft) S-SW 195 0 min 2,11 klux 14 W/m
09.09.2017 18:36 12,6 C 84 % 997,7 hPa 0,0 l/m 0,0 km/h (0 Bft) S-SW 195 0 min 2,29 klux 16 W/m
09.09.2017 18:41 12,6 C 84 % 997,7 hPa 0,0 l/m 0,0 km/h (0 Bft) S-SW 195 0 min 2,29 klux 16 W/m
09.09.2017 18:45 12,6 C 84 % 997,7 hPa 0,0 l/m 0,0 km/h (0 Bft) S-SW 195 0 min 3,34 klux 23 W/m
09.09.2017 18:51 12,7 C 84 % 997,7 hPa 0,0 l/m 0,0 km/h (0 Bft) S-SW 195 0 min 2,39 klux 16 W/m
09.09.2017 18:56 12,8 C 84 % 997,7 hPa 0,0 l/m 0,0 km/h (0 Bft) S-SW 195 0 min 1,94 klux 13 W/m
09.09.2017 19:01 12,8 C 84 % 997,7 hPa 0,1 l/m 0,0 km/h (0 Bft) S-SW 195 0 min 1,88 klux 13 W/m
09.09.2017 19:06 12,8 C 84 % 997,7 hPa 0,0 l/m 0,0 km/h (0 Bft) S-SW 195 0 min 1,80 klux 12 W/m
09.09.2017 19:11 12,8 C 85 % 997,7 hPa 0,0 l/m 0,0 km/h (0 Bft) S-SW 195 0 min 1,94 klux 13 W/m
09.09.2017 19:16 12,8 C 85 % 997,7 hPa 0,0 l/m 0,3 km/h (0 Bft) S-SW 195 0 min 1,85 klux 13 W/m
09.09.2017 19:21 12,8 C 85 % 997,7 hPa 0,0 l/m 4,1 km/h (1 Bft) S-SW 195 0 min 1,72 klux 12 W/m
09.09.2017 19:25 12,8 C 85 % 997,7 hPa 0,0 l/m 3,8 km/h (1 Bft) S-SW 195 0 min 1,48 klux 10 W/m
09.09.2017 19:31 12,8 C 85 % 997,7 hPa 0,0 l/m 0,9 km/h (0 Bft) S 190 0 min 1,26 klux 9 W/m
09.09.2017 19:36 12,8 C 85 % 997,7 hPa 0,0 l/m 0,3 km/h (0 Bft) S 190 0 min 1,05 klux 7 W/m
09.09.2017 19:41 12,8 C 85 % 997,7 hPa 0,0 l/m 4,0 km/h (1 Bft) S 190 0 min 921 lux 6 W/m
09.09.2017 19:45 12,7 C 85 % 997,7 hPa 0,0 l/m 6,3 km/h (2 Bft) S-SW 195 0 min 752 lux 5 W/m
09.09.2017 19:50 12,6 C 85 % 997,7 hPa 0,0 l/m 5,6 km/h (2 Bft) S 190 0 min 650 lux 4 W/m
09.09.2017 19:56 12,7 C 85 % 997,7 hPa 0,0 l/m 5,2 km/h (1 Bft) S 190 0 min 565 lux 0 W/m
09.09.2017 20:01 12,7 C 85 % 997,7 hPa 0,0 l/m 5,6 km/h (2 Bft) S 190 0 min 321 lux 0 W/m
09.09.2017 20:05 12,7 C 85 % 997,7 hPa 0,0 l/m 5,6 km/h (2 Bft) S 190 0 min 229 lux 0 W/m
09.09.2017 20:11 12,6 C 85 % 997,7 hPa 0,0 l/m 6,5 km/h (2 Bft) S 190 0 min 148 lux 0 W/m
09.09.2017 20:16 12,6 C 85 % 997,7 hPa 0,0 l/m 7,1 km/h (2 Bft) S 185 0 min 75 lux 0 W/m
09.09.2017 20:21 12,6 C 85 % 997,7 hPa 0,0 l/m 6,9 km/h (2 Bft) S 185 0 min 17 lux 0 W/m
09.09.2017 20:26 12,5 C 85 % 997,7 hPa 0,0 l/m 5,6 km/h (2 Bft) S 185 0 min 11 lux 0 W/m
09.09.2017 20:30 12,4 C 85 % 997,7 hPa 0,0 l/m 5,7 km/h (2 Bft) S 185 0 min 6 lux 0 W/m
09.09.2017 20:36 12,4 C 85 % 998,7 hPa 0,0 l/m 6,5 km/h (2 Bft) S 185 0 min 1 lux 0 W/m
09.09.2017 20:41 12,3 C 85 % 998,7 hPa 0,0 l/m 7,6 km/h (2 Bft) S-SO22.5 160 0 min 0 lux 0 W/m
09.09.2017 20:46 12,3 C 85 % 998,7 hPa 0,0 l/m 6,8 km/h (2 Bft) S-SO 160 0 min 0 lux 0 W/m
09.09.2017 20:50 12,3 C 85 % 998,7 hPa 0,0 l/m 6,9 km/h (2 Bft) S-SO22.5 165 0 min 0 lux 0 W/m
09.09.2017 20:55 12,3 C 85 % 998,7 hPa 0,0 l/m 4,7 km/h (1 Bft) S-SO 160 0 min 0 lux 0 W/m
09.09.2017 21:01 12,3 C 85 % 998,7 hPa 0,0 l/m 5,5 km/h (2 Bft) S-SO 160 0 min 0 lux 0 W/m
09.09.2017 21:06 12,2 C 85 % 998,7 hPa 0,0 l/m 5,1 km/h (1 Bft) S-SO 165 0 min 0 lux 0 W/m
09.09.2017 21:10 12,2 C 85 % 998,7 hPa 0,0 l/m 3,3 km/h (1 Bft) S-SO 165 0 min 0 lux 0 W/m
09.09.2017 21:16 12,1 C 85 % 998,7 hPa 0,0 l/m 0,3 km/h (0 Bft) S-SO 165 0 min 0 lux 0 W/m
09.09.2017 21:21 12,1 C 85 % 998,7 hPa 0,0 l/m 0,0 km/h (0 Bft) SO 145 0 min 0 lux 0 W/m
09.09.2017 21:26 12,1 C 85 % 998,7 hPa 0,0 l/m 6,9 km/h (2 Bft) S-SO22.5 150 0 min 0 lux 0 W/m
09.09.2017 21:31 12,0 C 85 % 998,7 hPa 0,0 l/m 0,0 km/h (0 Bft) SO 145 0 min 0 lux 0 W/m
09.09.2017 21:35 11,9 C 85 % 998,7 hPa 0,0 l/m 0,0 km/h (0 Bft) SO 145 0 min 0 lux 0 W/m
09.09.2017 21:41 11,9 C 85 % 998,7 hPa 0,0 l/m 0,0 km/h (0 Bft) SO 140 0 min 0 lux 0 W/m
09.09.2017 21:46 11,8 C 85 % 998,7 hPa 0,0 l/m 0,0 km/h (0 Bft) SO 140 0 min 0 lux 0 W/m
09.09.2017 21:51 11,7 C 86 % 998,7 hPa 0,0 l/m 0,0 km/h (0 Bft) SO 140 0 min 0 lux 0 W/m
09.09.2017 21:55 11,7 C 86 % 998,7 hPa 0,0 l/m 0,1 km/h (0 Bft) SO 140 0 min 0 lux 0 W/m
09.09.2017 22:01 11,7 C 86 % 999,7 hPa 0,0 l/m 6,7 km/h (2 Bft) S-SO 150 0 min 0 lux 0 W/m
09.09.2017 22:06 11,7 C 86 % 999,7 hPa 0,0 l/m 7,2 km/h (2 Bft) S-SO 160 0 min 0 lux 0 W/m
09.09.2017 22:10 11,7 C 86 % 998,7 hPa 0,0 l/m 7,5 km/h (2 Bft) S-SO 160 0 min 0 lux 0 W/m
09.09.2017 22:16 11,7 C 86 % 999,7 hPa 0,0 l/m 7,6 km/h (2 Bft) S-SO 150 0 min 0 lux 0 W/m
09.09.2017 22:21 11,8 C 86 % 999,7 hPa 0,0 l/m 7,8 km/h (2 Bft) S-SO 155 0 min 0 lux 0 W/m
09.09.2017 22:26 11,8 C 86 % 999,7 hPa 0,0 l/m 8,5 km/h (2 Bft) S-SO22.5 150 0 min 0 lux 0 W/m
09.09.2017 22:31 11,8 C 86 % 999,7 hPa 0,0 l/m 7,4 km/h (2 Bft) SO 140 0 min 0 lux 0 W/m
09.09.2017 22:35 11,8 C 86 % 999,7 hPa 0,0 l/m 8,4 km/h (2 Bft) S-SO 165 0 min 0 lux 0 W/m
09.09.2017 22:41 11,9 C 86 % 999,7 hPa 0,0 l/m 7,3 km/h (2 Bft) S22.5 185 0 min 0 lux 0 W/m
09.09.2017 22:46 11,8 C 86 % 999,7 hPa 0,0 l/m 1,4 km/h (1 Bft) S 185 0 min 0 lux 0 W/m
09.09.2017 22:51 11,8 C 86 % 999,7 hPa 0,0 l/m 6,9 km/h (2 Bft) S 190 0 min 0 lux 0 W/m
09.09.2017 22:56 12,0 C 86 % 999,7 hPa 0,0 l/m 10,0 km/h (2 Bft) S22.5 185 0 min 0 lux 0 W/m
09.09.2017 23:00 12,1 C 86 % 999,7 hPa 0,0 l/m 9,1 km/h (2 Bft) S22.5 185 0 min 0 lux 0 W/m
09.09.2017 23:06 12,0 C 86 % 999,7 hPa 0,0 l/m 7,9 km/h (2 Bft) S22.5 180 0 min 0 lux 0 W/m
09.09.2017 23:11 11,9 C 86 % 999,7 hPa 0,0 l/m 7,9 km/h (2 Bft) S22.5 180 0 min 0 lux 0 W/m
09.09.2017 23:15 11,8 C 86 % 999,7 hPa 0,0 l/m 5,8 km/h (2 Bft) S 175 0 min 0 lux 0 W/m
09.09.2017 23:21 11,6 C 86 % 999,7 hPa 0,0 l/m 7,2 km/h (2 Bft) SO22.5 140 0 min 0 lux 0 W/m
09.09.2017 23:26 11,4 C 86 % 999,7 hPa 0,0 l/m 5,9 km/h (2 Bft) SO 140 0 min 0 lux 0 W/m
09.09.2017 23:31 11,4 C 86 % 999,7 hPa 0,0 l/m 6,8 km/h (2 Bft) SO 145 0 min 0 lux 0 W/m
09.09.2017 23:35 11,4 C 86 % 999,7 hPa 0,0 l/m 9,2 km/h (2 Bft) S-SO22.5 155 0 min 0 lux 0 W/m
09.09.2017 23:41 11,5 C 86 % 999,7 hPa 0,0 l/m 6,8 km/h (2 Bft) S-SO22.5 165 0 min 0 lux 0 W/m
09.09.2017 23:46 11,6 C 87 % 999,7 hPa 0,0 l/m 7,9 km/h (2 Bft) S-SO22.5 160 0 min 0 lux 0 W/m
09.09.2017 23:51 11,5 C 87 % 999,7 hPa 0,0 l/m 7,7 km/h (2 Bft) S-SO 150 0 min 0 lux 0 W/m
09.09.2017 23:56 11,6 C 87 % 999,7 hPa 0,0 l/m 7,4 km/h (2 Bft) S 170 0 min 0 lux 0 W/m
_ Min-Zeit 23:26 14:50 06:45 - 18:01 - - - - -
Minimum _ 11,4 C 72 % 992,7 hPa - 0,0 km/h (0 Bft) - - - - -
_ Max-Zeit 14:41 06:40 23:26 17:40 17:36 - - 14:31 13:45 13:45
Maximum _ 18,0 C 88 % 999,7 hPa 4,2 l/m 38,7 km/h
W (6 Bft)
- - 6 min 85,2 klux 583 W/m
Durchschnitt _ 14,0 C 84 % 995,8 hPa #27,1 l/m 14,5 km/h (3 Bft) SW - #1:35 h 9,3 klux 152 W/m